Flag Weather past 2 weeks in Santiago de los Caballeros, Dominican Republic

Now
82 °F

Passing clouds.


Feels Like: 85 °F
Forecast: N/A
Wind: 5 mph from Southeast

Location: Santiago

Current Time: Nov 28, 2014 at 6:24:08 PM

Latest Report: Nov 28, 2014 at 6:00 PM


Visibility: N/A

Pressure: 29.89 "Hg

Humidity: 58%

Dew point: 66 °F

Location of Santiago de los CaballerosLocation

Historic Weather in Santiago de los Caballeros — Graph

°F

Santiago de los Caballeros temperature yesterday

Maximum temperature yesterday: 86 °F (at 3:00 PM)
Minimum temperature yesterday: 68 °F (at 11:00 PM)
Average temperature yesterday: 76 °F

Past Weeks' High & Low Weather Summary

 TemperatureHumidityPressure
High88 °F (Nov 13, 5:00 PM)100% (Nov 14, 7:00 AM)30.09 "Hg (Nov 14, 7:00 AM)
Low63 °F (Nov 28, 5:00 AM)49% (Nov 28, 3:00 PM)29.83 "Hg (Nov 13, 5:00 PM)
Average77 °F87%30.00 "Hg
* Reported Nov 13 5:00 PM — Nov 28 5:00 PM, Santiago de los Caballeros, Weather by CustomWeather, © 2014

Note: Actual official high and low records may vary slightly from our data, if they occured in-between our weather recording intervals... More about our weather records

Advertising

Santiago de los Caballeros weather history for previous 24 hours

 ConditionsComfort  
Time TempWeatherWind HumidityBarometerVisibility
5:00 PM
Nov 28
84 °FPassing clouds.6 mph55%29.89 "HgN/A
4:00 PM84 °FPassing clouds.5 mph51%29.89 "HgN/A
3:00 PM86 °FPassing clouds.5 mph49%29.89 "HgN/A
2:00 PM84 °FPassing clouds.6 mph55%29.92 "HgN/A
1:00 PM82 °FPassing clouds.9 mph62%29.95 "HgN/A
12:00 PM82 °FPassing clouds.9 mph62%29.95 "HgN/A
11:00 AM79 °FPassing clouds.6 mph70%29.98 "HgN/A
10:00 AM75 °FPassing clouds.5 mph89%29.98 "HgN/A
9:00 AM72 °FPassing clouds.No wind94%29.98 "HgN/A
8:00 AM63 °FFog.No wind94%29.95 "Hg3 mi
7:00 AM63 °FFog.No wind100%29.95 "Hg1 mi
6:00 AM63 °FPassing clouds.No wind100%29.95 "HgN/A
5:00 AM63 °FPassing clouds.No wind100%29.92 "HgN/A
4:00 AM64 °FPassing clouds.No wind100%29.92 "HgN/A
3:00 AM64 °FPassing clouds.3 mph100%29.95 "HgN/A
2:00 AM66 °FPassing clouds.No wind94%29.95 "HgN/A
1:00 AM66 °FPassing clouds.No wind100%29.95 "HgN/A
12:00 AM68 °FPassing clouds.No wind100%29.98 "HgN/A
11:00 PM
Nov 27
68 °FPassing clouds.2 mph100%29.98 "HgN/A
10:00 PM70 °FPassing clouds.3 mph94%29.98 "HgN/A
9:00 PM72 °FPassing clouds.2 mph94%29.98 "HgN/A
8:00 PM73 °FPassing clouds.5 mph89%29.95 "HgN/A
7:00 PM75 °FPassing clouds.7 mph94%29.92 "HgN/A
6:00 PM79 °FPassing clouds.8 mph79%29.92 "HgN/A
Weather by CustomWeather, © 2014

See weather overviewHow to use our weather pages